Auburn, CA

5:29 PM PDT on September 30, 2016 (GMT -0700)
Auburn Municipal

Weather History for KAUN - November, 2010

Change the Weather History Date:

Saturday, November 20, 2010

  Actual Average Record
Temperature  
Mean Temperature 42 °F -  
Max Temperature 46 °F 58 °F 76 °F (1949)
Min Temperature 37 °F 40 °F 31 °F (1964)
Degree Days  
Heating Degree Days 24    
Moisture  
Dew Point 38 °F    
Average Humidity 90    
Maximum Humidity 100    
Minimum Humidity 71    
Precipitation  
Precipitation 0.26 in - - ()
Sea Level Pressure  
Sea Level Pressure 29.76 in    
Wind  
Wind Speed 9 mph (SE)    
Max Wind Speed 20 mph    
Max Gust Speed 29 mph    
Visibility 8 miles    
Events      
Averages and records for this station are not official NWS values.
T = Trace of Precipitation, MM = Missing Value Source: NWS Daily Summary

Daily Weather History Graph

Daily Weather History Graph

Search for Another Location

Airport or City:

Trip Planner

Search our weather history database for the weather conditions in past years. The results will help you decide how hot, cold, wet, or windy it might be!

Date:

Astronomy

Nov. 20, 2010 Rise Set
Actual Time 6:52 AM PST 4:46 PM PST
Civil Twilight 6:23 AM PST 5:15 PM PST
Nautical Twilight 5:51 AM PST 5:48 PM PST
Astronomical Twilight 5:19 AM PST 6:20 PM PST
Moon 3:57 PM PST (11/20) 5:57 AM PST (11/20)
Length of Visible Light 10h 51m
Length of Day
9h 54m
Waxing Gibbous, 99% of the Moon is Illuminated
Nov 20
Waxing Gibbous
Nov 21
Full
Nov 28
Last Quarter
Dec 5
New
Dec 13
First Quarter

Hourly Weather History & Observations

Time (PST) Temp. Windchill Dew Point Humidity Pressure Visibility Wind Dir Wind Speed Gust Speed Precip Events Conditions
12:30 AM 37.4 °F 30.8 °F 35.6 °F 93% 29.80 in 7.0 mi East 9.2 mph - 0.05 in   Mostly Cloudy
12:50 AM 37.4 °F 32.8 °F 37.4 °F 100% 29.80 in 5.0 mi ESE 5.8 mph - 0.07 in   Overcast
1:10 AM 37.4 °F 30.8 °F 37.4 °F 100% 29.79 in 7.0 mi East 9.2 mph - N/A   Overcast
1:30 AM 37.4 °F 30.3 °F 37.4 °F 100% 29.78 in 10.0 mi ESE 10.4 mph - N/A   Mostly Cloudy
1:50 AM 37.4 °F 31.4 °F 37.4 °F 100% 29.79 in 10.0 mi ESE 8.1 mph - N/A   Mostly Cloudy
2:10 AM 37.4 °F 32.1 °F 37.4 °F 100% 29.78 in 10.0 mi ESE 6.9 mph - N/A   Mostly Cloudy
2:50 AM 37.4 °F 32.1 °F 37.4 °F 100% 29.78 in 10.0 mi ESE 6.9 mph - N/A   Mostly Cloudy
3:10 AM 37.4 °F 33.8 °F 37.4 °F 100% 29.79 in 10.0 mi ESE 4.6 mph - N/A   Overcast
3:30 AM 37.4 °F 32.1 °F 37.4 °F 100% 29.78 in 10.0 mi ESE 6.9 mph - N/A   Overcast
3:50 AM 37.4 °F 32.1 °F 37.4 °F 100% 29.79 in 10.0 mi SE 6.9 mph - N/A   Overcast
4:10 AM 39.2 °F 33.0 °F 37.4 °F 93% 29.78 in 10.0 mi SE 9.2 mph - N/A   Overcast
4:30 AM 37.4 °F 32.1 °F 37.4 °F 100% 29.79 in 10.0 mi SE 6.9 mph - N/A   Overcast
4:50 AM 37.4 °F 32.1 °F 37.4 °F 100% 29.79 in 10.0 mi SE 6.9 mph - N/A   Overcast
5:10 AM 39.2 °F 34.2 °F 37.4 °F 93% 29.79 in 10.0 mi SE 6.9 mph - N/A   Overcast
5:30 AM 37.4 °F 32.8 °F 35.6 °F 93% 29.79 in 10.0 mi SE 5.8 mph - N/A   Scattered Clouds
5:50 AM 37.4 °F 32.8 °F 35.6 °F 93% 29.80 in 10.0 mi ESE 5.8 mph - N/A   Clear
6:10 AM 37.4 °F 32.8 °F 35.6 °F 93% 29.80 in 10.0 mi SE 5.8 mph - N/A   Scattered Clouds
6:30 AM 37.4 °F 32.8 °F 37.4 °F 100% 29.80 in 10.0 mi ESE 5.8 mph - N/A   Overcast
6:50 AM 39.2 °F 34.2 °F 37.4 °F 93% 29.81 in 10.0 mi SE 6.9 mph - N/A   Overcast
7:10 AM 39.2 °F 33.6 °F 35.6 °F 87% 29.81 in 10.0 mi SE 8.1 mph - N/A   Mostly Cloudy
7:30 AM 39.2 °F 33.0 °F 37.4 °F 93% 29.80 in 10.0 mi SE 9.2 mph - N/A   Overcast
7:50 AM 39.2 °F 33.6 °F 37.4 °F 93% 29.80 in 10.0 mi SE 8.1 mph - N/A   Mostly Cloudy
8:10 AM 39.2 °F 33.0 °F 37.4 °F 93% 29.81 in 10.0 mi SSE 9.2 mph - N/A   Mostly Cloudy
8:30 AM 39.2 °F 33.0 °F 37.4 °F 93% 29.81 in 10.0 mi SE 9.2 mph - N/A   Mostly Cloudy
8:50 AM 39.2 °F 32.5 °F 37.4 °F 93% 29.81 in 10.0 mi SE 10.4 mph - N/A   Mostly Cloudy
9:10 AM 39.2 °F 33.6 °F 37.4 °F 93% 29.81 in 10.0 mi SE 8.1 mph - N/A   Mostly Cloudy
9:30 AM 39.2 °F 33.6 °F 37.4 °F 93% 29.81 in 4.0 mi SSE 8.1 mph - 0.01 in   Overcast
9:50 AM 41.0 °F 35.2 °F 37.4 °F 87% 29.81 in 10.0 mi ESE 9.2 mph - 0.01 in   Overcast
10:10 AM 41.0 °F 35.2 °F 37.4 °F 87% 29.81 in 7.0 mi SE 9.2 mph - N/A   Overcast
10:30 AM 41.0 °F 34.7 °F 39.2 °F 93% 29.82 in 4.0 mi SSE 10.4 mph - 0.02 in   Overcast
10:50 AM 41.0 °F 34.7 °F 39.2 °F 93% 29.82 in 4.0 mi SSE 10.4 mph - 0.03 in   Overcast
11:10 AM 42.8 °F 38.0 °F 39.2 °F 87% 29.81 in 5.0 mi South 8.1 mph 17.3 mph 0.01 in   Overcast
11:30 AM 42.8 °F 38.0 °F 39.2 °F 87% 29.80 in 4.0 mi South 8.1 mph - 0.01 in   Overcast
11:50 AM 42.8 °F 39.3 °F 39.2 °F 87% 29.79 in 3.0 mi South 5.8 mph - 0.02 in   Overcast
12:10 PM 42.8 °F 38.0 °F 39.2 °F 87% 29.79 in 5.0 mi South 8.1 mph - 0.01 in   Overcast
12:30 PM 42.8 °F 37.5 °F 39.2 °F 87% 29.77 in 7.0 mi South 9.2 mph - 0.02 in   Overcast
12:50 PM 44.6 °F 39.7 °F 39.2 °F 81% 29.76 in 9.0 mi SSE 9.2 mph - 0.02 in   Overcast
1:10 PM 44.6 °F 37.8 °F 39.2 °F 81% 29.76 in 10.0 mi South 15.0 mph 19.6 mph N/A   Overcast
1:30 PM 44.6 °F 38.8 °F 39.2 °F 81% 29.75 in 10.0 mi South 11.5 mph 18.4 mph N/A   Overcast
1:50 PM 44.6 °F 39.7 °F 41.0 °F 87% 29.74 in 10.0 mi SSE 9.2 mph 24.2 mph N/A   Overcast
2:10 PM 46.4 °F 41.5 °F 39.2 °F 76% 29.74 in 10.0 mi South 10.4 mph 19.6 mph N/A   Overcast
2:30 PM 46.4 °F 40.1 °F 37.4 °F 71% 29.73 in 10.0 mi South 15.0 mph 20.7 mph N/A   Mostly Cloudy
2:50 PM 46.4 °F 41.1 °F 39.2 °F 76% 29.72 in 10.0 mi SSE 11.5 mph 18.4 mph N/A   Overcast
3:10 PM 44.6 °F 38.8 °F 37.4 °F 76% 29.71 in 10.0 mi SSE 11.5 mph 19.6 mph N/A   Overcast
3:30 PM 44.6 °F 37.8 °F 39.2 °F 81% 29.72 in 4.0 mi SSE 15.0 mph 28.8 mph N/A   Overcast
3:50 PM 42.8 °F 34.8 °F 37.4 °F 81% 29.71 in 10.0 mi SSE 17.3 mph 26.5 mph N/A   Overcast
4:10 PM 42.8 °F 35.8 °F 39.2 °F 87% 29.69 in 10.0 mi SE 13.8 mph 24.2 mph N/A   Overcast
4:30 PM 42.8 °F 35.8 °F 37.4 °F 81% 29.68 in 10.0 mi SSE 13.8 mph 19.6 mph N/A   Mostly Cloudy
4:50 PM 42.8 °F 36.6 °F 37.4 °F 81% 29.67 in 7.0 mi SE 11.5 mph 16.1 mph 0.01 in   Overcast
5:10 PM 42.8 °F 36.2 °F 39.2 °F 87% 29.66 in 5.0 mi SSE 12.7 mph 19.6 mph 0.01 in   Overcast
5:30 PM 42.8 °F 34.3 °F 39.2 °F 87% 29.65 in 6.0 mi SSE 19.6 mph 27.6 mph 0.02 in   Mostly Cloudy
5:50 PM 42.8 °F 35.1 °F 39.2 °F 87% 29.64 in 7.0 mi SE 16.1 mph 23.0 mph 0.02 in   Overcast
6:10 PM 42.8 °F 36.2 °F 39.2 °F 87% 29.63 in 6.0 mi SSE 12.7 mph 20.7 mph 0.01 in   Overcast
6:30 PM 42.8 °F 36.6 °F 39.2 °F 87% 29.62 in 5.0 mi SSE 11.5 mph 25.3 mph 0.04 in   Overcast
6:50 PM 42.8 °F 34.8 °F 39.2 °F 87% 29.60 in 6.0 mi SSE 17.3 mph 25.3 mph 0.05 in   Overcast
7:10 PM 42.8 °F 35.4 °F 39.2 °F 87% 29.60 in 4.0 mi SSE 15.0 mph 19.6 mph 0.03 in   Mostly Cloudy
7:30 PM 42.8 °F 35.8 °F 39.2 °F 87% 29.60 in 5.0 mi SSE 13.8 mph 20.7 mph 0.10 in   Overcast
7:50 PM 42.8 °F 36.2 °F 39.2 °F 87% 29.60 in 3.0 mi South 12.7 mph 20.7 mph 0.17 in   Overcast
8:10 PM 42.8 °F 34.3 °F 41.0 °F 93% 29.61 in 3.0 mi SSW 19.6 mph 26.5 mph 0.06 in   Overcast
8:30 PM 42.8 °F 34.0 °F 39.2 °F 87% 29.61 in 2.0 mi SSW 20.7 mph 31.1 mph 0.19 in   Overcast
8:50 PM 41.0 °F 32.5 °F 39.2 °F 93% 29.63 in 2.0 mi SW 17.3 mph 26.5 mph 0.36 in   Overcast
9:10 PM 39.2 °F 30.8 °F 37.4 °F 93% 29.63 in 3.0 mi SSW 15.0 mph 18.4 mph 0.07 in   Overcast
9:30 PM 37.4 °F 28.5 °F 37.4 °F 100% 29.63 in 3.0 mi SW 15.0 mph 24.2 mph 0.20 in   Overcast
9:50 PM 39.2 °F 33.6 °F 37.4 °F 93% 29.62 in 5.0 mi South 8.1 mph - 0.26 in   Overcast
10:10 PM 39.2 °F 32.0 °F 39.2 °F 100% 29.63 in 8.0 mi South 11.5 mph 19.6 mph N/A   Overcast
10:30 PM 41.0 °F 33.5 °F 39.2 °F 93% 29.63 in 5.0 mi SSW 13.8 mph 21.9 mph 0.04 in   Overcast
10:50 PM 41.0 °F 33.5 °F 41.0 °F 100% 29.63 in 10.0 mi SSW 13.8 mph 19.6 mph 0.04 in   Overcast
11:30 PM 41.0 °F 34.7 °F 41.0 °F 100% 29.66 in 10.0 mi SW 10.4 mph - N/A   Overcast
11:50 PM 41.0 °F 35.2 °F 41.0 °F 100% 29.66 in 10.0 mi SSW 9.2 mph - N/A   Overcast